Погода в Салон-де-Провансе

Франция     43˚38′37″N   5˚05′42″E
темп.,
°C
ветер,
м/с
пор.,
м/с
влажн.,
%
обл.,
%
осадки,
мм/ч
давл.,
гПа
погр.,
м
17 января, вс
вс1701:00+2˚сз397414 0.0 1022274
04:00+2˚сз268760 0.0 1020208
07:00+3˚с238875 0.1 1019131
10:00+6˚ссз7167522 0.0 1019931
13:00+9˚ссз11176111 0.0 10191306
16:00+9˚ссз1118600 0.0 10191650
19:00+5˚ссз1120700 0.0 10221248
22:00+5˚ссз1018670 0.0 10241059
18 января, пн
пн1801:00+4˚ссз1117680 0.0 1025815
04:00+3˚ссз10177377 0.0 1024818
07:00+3˚ссз10177039 0.0 1025793
10:00+4˚ссз1017670 0.0 1026798
13:00+7˚с812570 0.0 1025791
16:00+6˚ссз695833 0.0 1025514
19:00+3˚ссз586916 0.0 1026213
22:00+1˚ссз25800 0.0 1027141
19 января, вт
вт1901:00ссв22840 0.0 102626
04:00ссв118038 0.0 102522
07:00всв127353 0.0 102522
10:00+4˚в23549 0.0 1024131
13:00+9˚юв234213 0.0 1023538
16:00+9˚юв355816 0.0 1021768
19:00+7˚в235742 0.0 102184
22:00+7˚в3660100 0.1 1020206
20 января, ср
ср2001:00+8˚в4971100 0.4 1019313
04:00+8˚вюв498399 0.5 1017369
07:00+8˚вюв5129196 1.1 1015535
10:00+11˚юв7138699 0.4 10141052
13:00+13˚ююв10157183 0.6 10121363
16:00+13˚ююв10157293 0.1 10091384
19:00+11˚юв9157885 0.1 1009915
22:00+11˚ююв71282100 0.7 10081290
21 января, чт
чт2101:00+11˚ююв61284100 2.3 1008927
04:00+10˚юв4119176 0.5 1007461
07:00+9˚вюв369486 0.6 1008171
10:00+11˚в468474 0.0 1009278
13:00+14˚вюв117186 0.1 1010510
16:00+13˚ююз1172100 0.1 1008538
19:00+10˚юв2287100 0.4 100723
22:00+11˚юв4108696 0.3 1006502